Location: F?ge?el
(45.8833°N, 22.5833°E)
Time: 11:09:56
(UTC+00:00)

Daily predictions for brighter satellites

Satellite Brightness Start Highest point End
(mag) Time Altitude Azimuth Time Altitude Azimuth Time Altitude Azimuth
Cosmos 2233 Rocket 4.1 15:16:46 10° S 15:22:55 59° E 15:29:07 10° NNE
Cosmos 1725 Rocket 4.1 15:17:30 10° S 15:23:46 86° E 15:30:08 10° N
Cosmos 2061 Rocket 4.2 15:18:58 10° SSE 15:25:05 55° E 15:31:09 10° NNE
Iridium 4 Rocket 3.7 15:20:36 10° S 15:25:42 75° W 15:30:23 10° N
Cosmos 407 Rocket 4.2 15:23:42 10° SSE 15:28:21 35° ESE 15:33:00 10° NE
CBERS-1 4.1 15:24:03 10° SSE 15:29:10 85° WSW 15:34:20 10° NNW
Cosmos 1484 Rocket 3.0 15:25:58 10° S 15:29:26 67° WSW 15:32:57 10° NNW
RESURS DK-1 3.0 15:30:41 10° N 15:34:18 31° NE 15:37:54 10° ESE
Cosmos 1782 Rocket 3.5 15:32:53 10° S 15:37:18 78° E 15:41:45 10° NNE
ISS -3.5 15:37:57 10° SW 15:41:14 59° SSE 15:44:16 12° ENE
Cosmos 1300 Rocket 3.6 15:37:13 10° S 15:41:36 86° W 15:46:00 10° N
Cosmos 1869 3.7 15:38:58 10° SSE 15:42:09 33° E 15:45:21 10° NNE
CZ-2D R/B 3.1 15:39:44 10° SE 15:42:43 41° ENE 15:45:44 10° N
COSMO-SKYMED 1 4.1 15:45:04 11° ENE 15:47:14 15° E 15:49:35 10° SE
SJ-12 3.9 15:43:34 10° SSE 15:47:15 50° ENE 15:50:56 10° N
IGS 5A 3.8 15:43:34 10° S 15:47:32 68° WSW 15:51:33 10° NNW
AQUARIUS 4.4 15:44:35 10° SE 15:48:47 45° ENE 15:53:00 10° N
Cosmos 540 Rocket 3.7 15:45:05 10° NNW 15:50:04 48° ENE 15:54:59 10° SE
Cosmos 1763 Rocket 3.5 15:50:11 10° NNW 15:55:23 63° ENE 16:00:28 10° SSE
Cosmos 1400 Rocket 4.2 15:53:13 10° SE 15:55:39 16° E 15:56:32 15° ENE
Cosmos 1975 Rocket 3.0 15:52:04 10° N 15:56:26 84° E 16:00:49 10° S
CORIOLIS 4.3 15:51:57 10° SSE 15:57:19 83° WSW 16:02:43 10° NNW
Cosmos 1140 Rocket 3.9 15:55:12 10° SSW 16:00:21 66° WNW 16:05:30 10° NNE
IRS-1C 4.1 15:57:20 10° SSE 16:02:39 86° ENE 16:08:01 10° NNW
Cosmos 2151 Rocket 4.5 15:59:45 10° SSE 16:03:33 28° E 16:07:23 10° NNE
Cosmos 1812 2.6 16:01:09 10° SSE 16:03:48 34° E 16:05:46 16° NNE
SMAP 3.3 15:59:10 10° S 16:03:49 75° WSW 16:08:29 10° NNW
Cosmos 44 Rocket 3.5 15:59:53 10° SSW 16:04:29 52° ESE 16:08:29 14° NE
Cosmos 1943 Rocket 2.2 16:01:00 10° SSW 16:06:33 65° ESE 16:12:05 10° NNE
Cosmos 2058 3.3 16:04:17 10° N 16:08:00 37° ENE 16:11:43 10° SE
Cosmos 2082 Rocket 2.4 16:06:30 10° NNW 16:11:57 47° ENE 16:17:20 10° SE
SKYMED 2 4.0 16:09:11 10° NNE 16:13:17 39° E 16:17:21 10° SSE
Okean 1 Rocket 4.2 16:10:17 10° SE 16:13:43 23° E 16:14:36 21° ENE
Aureole 3 Rocket 2.3 16:11:07 10° S 16:14:04 51° E 16:16:59 11° NNE
Cosmos 2278 Rocket 2.1 16:09:21 10° SSW 16:14:59 72° ESE 16:20:38 10° NNE
CZ-2D R/B 3.8 16:11:25 10° SE 16:15:19 41° ENE 16:19:17 10° N
Landsat 7 3.9 16:11:39 10° S 16:16:17 78° WSW 16:20:58 10° NNW
PSLV R/B 4.1 16:13:08 10° SE 16:16:40 30° ENE 16:20:13 10° N
NOSS 3 (A) 4.4 16:16:39 10° WSW 16:18:10 33° NW 16:18:10 33° NW
Helios 1A Rocket 3.4 16:18:18 26° E 16:18:22 26° E 16:21:16 10° SSE
SL-16 R/B 3.9 16:16:09 10° N 16:21:50 38° WNW 16:27:29 10° SW
Cosmos 1513 Rocket 4.5 16:16:20 10° S 16:22:37 72° E 16:29:01 10° NNE
Cosmos 2251 Rocket 3.5 16:22:08 10° S 16:27:20 63° ESE 16:32:12 12° NNE
Cosmos 2344 4.2 16:23:53 10° NW 16:31:15 44° NE 16:37:27 21° E
SL-19 R/B 4.2 16:26:59 10° SE 16:32:01 51° ENE 16:37:03 10° N
Cosmos 371 Rocket 3.8 16:28:37 10° SSE 16:32:59 36° ESE 16:34:20 30° ENE
CZ-4C R/B 4.2 16:30:10 10° NW 16:33:32 17° NNW 16:37:27 10° NNE
YAOGAN 1 2.7 16:29:44 10° SE 16:33:50 48° ENE 16:37:57 10° N
Cosmos 304 Rocket 4.2 16:29:53 10° S 16:34:15 38° ESE 16:35:37 31° ENE
Cosmos 841 Rocket 3.9 16:30:01 10° N 16:34:57 38° ENE 16:37:10 26° ESE
ATLAS 2AS CENTAUR R/B 3.7 16:30:26 10° NNW 16:36:08 27° NNE 16:38:09 24° NE
Nadezhda 4 Rocket 4.0 16:29:58 10° N 16:36:13 60° ENE 16:42:20 10° SSE
SJ 16-02 1.4 16:33:23 10° S 16:37:33 50° ESE 16:39:06 33° NE
COSMOS 2406 3.4 16:39:01 10° NNW 16:44:31 47° ENE 16:47:01 29° ESE
ARIANE 5 R/B 3.9 16:40:38 10° SSW 16:45:16 39° W 16:49:57 10° NNW
Resurs 1-3 3.5 16:41:23 10° SSE 16:45:37 61° ENE 16:49:53 10° N
Cosmos 1656 Rocket 4.2 16:41:51 10° SSE 16:46:48 34° ESE 16:47:09 34° E
Cosmos 468 Rocket 3.9 16:43:21 10° NNW 16:48:35 86° WSW 16:53:43 10° SSE
Cosmos 1862 2.9 16:45:14 10° N 16:48:52 80° E 16:52:30 10° S
USA 215 4.1 16:44:50 10° SSE 16:51:08 50° SW 16:57:28 10° WNW
Cosmos 1428 Rocket 4.4 16:49:41 10° N 16:55:58 71° E 17:02:15 10° SSE
Cosmos 489 Rocket 4.3 16:51:42 10° NNW 16:57:59 76° ENE 17:04:12 10° SSE
MOS 1 Rocket 4.1 16:54:04 10° S 16:58:13 47° W 17:02:33 10° NNW
Okean 2 Rocket 2.9 16:53:52 10° S 16:58:16 80° E 17:00:34 28° NNE
Cosmos 1536 Rocket 3.5 16:53:50 10° N 16:58:17 84° W 17:02:40 10° S
Cosmos 1190 Rocket 4.0 16:53:08 10° SSW 16:58:26 85° WNW 17:02:13 20° NNE
Cosmos 676 Rocket 3.9 16:56:06 10° S 17:01:20 64° ESE 17:03:00 42° NE
Meteor 2-3 Rocket 3.7 16:58:37 10° N 17:04:15 58° ENE 17:07:28 25° SE
Resurs 01 Rocket 3.6 17:08:57 16° N 17:08:57 16° N 17:09:58 10° N
Cosmos 1954 Rocket 4.0 17:06:09 10° SSW 17:11:26 81° WNW 17:14:07 30° NNE
USA 281 3.4 17:15:07 44° ENE 17:15:23 45° NE 17:21:34 10° NNW
BlueWalker 3 4.2 17:13:46 10° SSW 17:14:33 15° S 17:14:33 15° S
SPOT 1/Viking Rocket 4.4 17:12:09 10° S 17:17:09 50° W 17:22:13 10° NNW
ISS -2.0 17:15:00 10° W 17:17:12 30° NW 17:17:12 30° NW
COSMO-SKYMED 1 3.1 17:21:27 35° NNW 17:22:54 53° WNW 17:26:54 10° SSW
Cosmos 1634 Rocket 4.4 17:18:30 10° SSE 17:33:07 - NNE 17:22:50 42° SE
Cosmos 1400 Rocket 4.1 17:27:15 10° SW 17:30:48 37° WNW 17:31:12 36° WNW
BREEZE-M DEB (TANK) 3.2 17:29:09 10° W 17:32:19 61° N 17:32:21 61° N
Cosmos 2034 Rocket 4.2 17:30:57 10° SSW 17:37:07 69° W 17:43:23 10° N
Cosmos 1943 Rocket 4.1 17:46:14 10° WSW 17:50:44 24° NW 17:54:09 14° N
Cosmos 1092 Rocket 4.0 17:46:47 10° NNW 17:53:02 75° W 17:54:59 46° SSW
Cosmos 1932 4.5 17:47:25 10° SW 17:53:47 78° NW 17:54:03 76° NNW
Cosmos 2082 Rocket 4.0 17:51:00 10° NW 17:55:45 29° WSW 18:00:28 10° SSW
Cosmos 2026 Rocket 4.4 17:53:31 10° NNW 17:59:28 59° W 18:05:29 10° S
Cosmos 2278 Rocket 4.2 17:55:13 10° W 17:59:38 23° NW 18:02:47 15° N
BREEZE-M DEB (TANK) 4.3 18:00:27 10° W 18:03:16 55° NW 18:03:16 55° NW
Cosmos 2369 Rocket 4.3 18:03:20 10° SSW 18:04:20 16° SSW 18:04:20 16° SSW
SJ 16-02 3.8 18:12:55 10° WSW 18:15:42 18° WNW 18:15:42 18° WNW
ATLAS 2AS CENTAUR R/B 3.5 18:21:11 10° NW 18:25:35 44° NNW 18:25:35 44° NNW
Cosmos 2344 4.3 18:37:59 10° NW 18:46:07 60° WSW 18:47:32 55° SSW
